Hourly Data Report for July 26, 2021

LYNN LAKE
MANITOBA
Current Station Operator: NAVCAN

56°51'50.000" N
101°04'34.000" W
356.60 m
5061645
71078
YYL

Download Data

Hourly Data (July 2021)
Hourly Data Report for July 26, 2021
TIME
LST
Temp Definition
°C
Dew Point Definition
°C
Rel Hum Definition
%
Precip. Amount Definition
mm

Wind Dir Definition
10's deg

Wind Spd Definition
km/h
Visibility Definition
km
Stn Press Definition
kPa
Hmdx Definition


Wind Chill Definition


Weather Definition


00:00 5.9 3.2 83 0.0 24 8 16.1 97.00     LegendNANA
01:00 5.7 4.2 90 0.0 24 11 16.1 97.02     LegendNANA
02:00 5.7 5.4 98 0.0 23 11 16.1 97.05     LegendNANA
03:00 5.4 4.4 93 0.0 24 11 16.1 97.05     LegendNANA
04:00 5.3 4.6 95 0.0 23 13 16.1 97.07     LegendNANA
05:00 5.9 4.9 93 0.0 24 11 16.1 97.10     LegendNANA
06:00 8.0 6.3 89 0.0 23 8 16.1 97.09     LegendNANA
07:00 11.6 8.0 78 0.0 23 8 16.1 97.11     LegendNANA
08:00 14.9 7.4 61 0.0 21 13 16.1 97.12     LegendNANA
09:00 16.6 7.8 56 0.0 26 9 16.1 97.09     LegendNANA
10:00 17.9 4.7 41 0.0 32 15 16.1 97.06     LegendNANA
11:00 18.1 5.7 44 0.0 28 15 16.1 97.04     LegendNANA
12:00 19.7 5.6 39 0.0 LegendMM 13 16.1 97.01     LegendNANA
13:00 20.0 6.5 41 0.0 LegendMM 13 16.1 96.98     LegendNANA
14:00 21.5 6.3 37 0.0 22 18 16.1 96.96     LegendNANA
15:00 21.0 6.9 40 0.0 29 8 16.1 96.91     LegendNANA
16:00 20.6 8.3 45 0.0 22 9 16.1 96.89     LegendNANA
17:00 22.2 7.4 38 0.0 25 24 16.1 96.86     LegendNANA
18:00 21.7 5.5 34 0.0 26 18 16.1 96.83     LegendNANA
19:00 21.3 6.3 37 0.0 27 17 16.1 96.83     LegendNANA
20:00 19.9 6.3 41 0.0 25 11 16.1 96.80     LegendNANA
21:00 17.2 8.2 55 0.0 19 8 16.1 96.80     LegendNANA
22:00 15.2 8.1 62 0.0 21 5 16.1 96.81     LegendNANA
23:00 14.0 7.7 66 0.0 22 11 16.1 96.81     LegendNANA

Notes on Data Quality.

Legend

  • E = Estimated
  • M = Missing
  • NA = Not Available*
  • [empty] = Indicates an unobserved value
Date modified: